FIN5PK EFHK-EFKT

Flight info

Callsign FIN5PK
Flight time 1h 37m
Altitude 38000
Route TEVRU Y75 EVIMI
Aircraft A320/M-SDE3FGHIRWY/LB1

Departure

Time 2026-04-23 17:48
Airport Helsinki Vantaa Airport (EFHK)

Arrival

Time 2026-04-23 19:25
Airport Kittilä International Airport (EFKT)
Time Latitude Longitude Altitude Speed Heading
2026-04-23 17:23 60.31595 24.97285 167 ft 0 kts 243°
2026-04-23 17:35 60.31603 24.97317 166 ft 3 kts 244°
2026-04-23 17:35 60.31614 24.97366 166 ft 3 kts 257°
2026-04-23 17:36 60.31616 24.97401 166 ft 3 kts 299°
2026-04-23 17:36 60.31608 24.97418 165 ft 2 kts 332°
2026-04-23 17:36 60.31590 24.97436 164 ft 3 kts 333°
2026-04-23 17:36 60.31575 24.97451 164 ft 1 kts 333°
2026-04-23 17:37 60.31574 24.97453 163 ft 0 kts 333°
2026-04-23 17:39 60.31578 24.97449 164 ft 1 kts 333°
2026-04-23 17:39 60.31623 24.97449 163 ft 12 kts 48°
2026-04-23 17:39 60.31704 24.97470 159 ft 15 kts 334°
2026-04-23 17:40 60.31766 24.97406 160 ft 15 kts 333°
2026-04-23 17:40 60.31874 24.97296 162 ft 22 kts 334°
2026-04-23 17:40 60.32023 24.97140 165 ft 25 kts 333°
2026-04-23 17:40 60.32179 24.96980 166 ft 22 kts 333°
2026-04-23 17:41 60.32297 24.96848 165 ft 15 kts 309°
2026-04-23 17:41 60.32144 24.96432 168 ft 22 kts 227°
2026-04-23 17:41 60.32036 24.96195 168 ft 24 kts 227°
2026-04-23 17:42 60.31800 24.95677 170 ft 26 kts 228°
2026-04-23 17:42 60.31675 24.95401 170 ft 28 kts 227°
2026-04-23 17:42 60.31542 24.95106 170 ft 29 kts 227°
2026-04-23 17:43 60.31400 24.94791 164 ft 32 kts 227°
2026-04-23 17:43 60.31242 24.94443 159 ft 35 kts 227°
2026-04-23 17:43 60.31101 24.94133 157 ft 16 kts 227°
2026-04-23 17:43 60.31055 24.94033 158 ft 6 kts 227°
2026-04-23 17:44 60.31046 24.94011 158 ft 0 kts 233°
2026-04-23 17:44 60.31044 24.94004 158 ft 5 kts 234°
2026-04-23 17:44 60.31040 24.93858 159 ft 0 kts 293°
2026-04-23 17:45 60.31045 24.93836 159 ft 6 kts 297°
2026-04-23 17:45 60.31074 24.93766 159 ft 7 kts 320°
2026-04-23 17:46 60.31185 24.93758 159 ft 9 kts 47°
2026-04-23 17:46 60.31205 24.93803 159 ft 0 kts 48°
2026-04-23 17:47 60.31671 24.94832 170 ft 116 kts 47°
2026-04-23 17:48 60.32342 24.96305 211 ft 164 kts 46°
2026-04-23 17:48 60.33076 24.97953 899 ft 159 kts 45°
2026-04-23 17:48 60.33827 24.99618 1572 ft 166 kts 43°
2026-04-23 17:48 60.34668 25.01460 1953 ft 189 kts 44°
2026-04-23 17:49 60.35613 25.03523 2309 ft 213 kts 44°
2026-04-23 17:49 60.36676 25.05848 2784 ft 237 kts 44°
2026-04-23 17:49 60.37822 25.08378 3571 ft 248 kts 44°
2026-04-23 17:49 60.39012 25.10947 4545 ft 251 kts 38°
2026-04-23 17:50 60.40526 25.12625 5468 ft 251 kts 12°
2026-04-23 17:50 60.44046 25.12961 7377 ft 254 kts
2026-04-23 17:50 60.45813 25.13012 8433 ft 253 kts
2026-04-23 17:51 60.47573 25.13068 9462 ft 253 kts 360°
2026-04-23 17:51 60.49326 25.13117 10417 ft 252 kts 358°
2026-04-23 17:51 60.53002 25.12646 11250 ft 288 kts 358°
2026-04-23 17:52 60.55050 25.12624 11845 ft 298 kts 359°
2026-04-23 17:52 60.59231 25.12665 13511 ft 302 kts 359°
2026-04-23 17:52 60.61346 25.12666 14267 ft 304 kts 358°
2026-04-23 17:53 60.65589 25.12600 15748 ft 306 kts 358°
2026-04-23 17:53 60.67723 25.12548 16484 ft 308 kts 358°
2026-04-23 17:53 60.69867 25.12492 17215 ft 309 kts 358°
2026-04-23 17:54 60.72026 25.12434 17947 ft 311 kts 358°
2026-04-23 17:54 60.74194 25.12376 18585 ft 313 kts 358°
2026-04-23 17:54 60.78572 25.12261 19872 ft 316 kts 357°
2026-04-23 17:55 60.82961 25.12150 21122 ft 319 kts 358°
2026-04-23 17:55 60.85189 25.12101 21748 ft 321 kts 358°
2026-04-23 17:55 60.87427 25.12050 22347 ft 323 kts 358°
2026-04-23 17:56 60.89683 25.11992 22928 ft 325 kts 358°
2026-04-23 17:56 60.94241 25.11862 23950 ft 329 kts 357°
2026-04-23 17:56 60.96537 25.11801 24425 ft 330 kts 358°
2026-04-23 17:57 60.98835 25.11744 24894 ft 331 kts 358°
2026-04-23 17:57 61.01137 25.11687 25363 ft 331 kts 358°
2026-04-23 17:57 61.05769 25.11567 26260 ft 333 kts 358°
2026-04-23 17:58 61.08093 25.11507 26700 ft 334 kts 358°
2026-04-23 17:58 61.10419 25.11445 27183 ft 335 kts 357°
2026-04-23 17:58 61.12747 25.11383 27637 ft 335 kts 357°
2026-04-23 17:58 61.15081 25.11323 28061 ft 336 kts 357°
2026-04-23 17:59 61.17386 25.11268 28454 ft 336 kts 357°
2026-04-23 17:59 61.19731 25.11213 28849 ft 337 kts 357°
2026-04-23 17:59 61.22087 25.11152 29119 ft 339 kts 357°
2026-04-23 17:59 61.24472 25.11087 29463 ft 341 kts 357°
2026-04-23 18:00 61.26857 25.11020 29811 ft 342 kts 357°
2026-04-23 18:00 61.29217 25.10953 30109 ft 343 kts 357°
2026-04-23 18:00 61.31614 25.10882 30363 ft 345 kts 357°
2026-04-23 18:00 61.34024 25.10815 30604 ft 347 kts 357°
2026-04-23 18:01 61.36445 25.10756 30827 ft 349 kts 357°
2026-04-23 18:01 61.38879 25.10703 31048 ft 351 kts 357°
2026-04-23 18:01 61.41320 25.10649 31338 ft 350 kts 357°
2026-04-23 18:01 61.43755 25.10590 31727 ft 349 kts 357°
2026-04-23 18:02 61.46182 25.10526 32063 ft 348 kts 357°
2026-04-23 18:02 61.48603 25.10458 32361 ft 348 kts 357°
2026-04-23 18:02 61.51020 25.10394 32656 ft 348 kts 357°
2026-04-23 18:02 61.53419 25.10335 32946 ft 348 kts 357°
2026-04-23 18:03 61.55844 25.10277 33238 ft 348 kts 357°
2026-04-23 18:03 61.58265 25.10211 33535 ft 348 kts 357°
2026-04-23 18:03 61.60686 25.10141 33836 ft 348 kts 357°
2026-04-23 18:03 61.63113 25.10073 34073 ft 349 kts 357°
2026-04-23 18:04 61.65545 25.10007 34285 ft 351 kts 357°
2026-04-23 18:04 61.67991 25.09941 34468 ft 352 kts 357°
2026-04-23 18:04 61.70449 25.09875 34668 ft 354 kts 357°
2026-04-23 18:04 61.72917 25.09806 34854 ft 355 kts 357°
2026-04-23 18:05 61.75398 25.09736 35078 ft 357 kts 357°
2026-04-23 18:05 61.77889 25.09669 35233 ft 359 kts 357°
2026-04-23 18:05 61.80398 25.09608 35396 ft 361 kts 357°
2026-04-23 18:05 61.82912 25.09545 35570 ft 362 kts 357°
2026-04-23 18:06 61.85412 25.09479 35739 ft 364 kts 357°
2026-04-23 18:06 61.87947 25.09412 35864 ft 365 kts 357°
2026-04-23 18:06 61.90495 25.09339 36064 ft 366 kts 357°
2026-04-23 18:06 61.93044 25.09264 36244 ft 367 kts 357°
2026-04-23 18:07 61.95603 25.09194 36396 ft 368 kts 357°
2026-04-23 18:07 61.98166 25.09126 36552 ft 369 kts 357°
2026-04-23 18:07 62.00740 25.09061 36706 ft 371 kts 357°
2026-04-23 18:07 62.03323 25.08997 36854 ft 372 kts 357°
2026-04-23 18:08 62.05043 25.08951 36954 ft 373 kts 357°
2026-04-23 18:08 62.08522 25.08848 37185 ft 374 kts 357°
2026-04-23 18:08 62.11132 25.08774 37318 ft 376 kts 357°
2026-04-23 18:08 62.13753 25.08698 37453 ft 377 kts 357°
2026-04-23 18:09 62.16346 25.08623 37589 ft 378 kts 357°
2026-04-23 18:09 62.18986 25.08544 37752 ft 379 kts 357°
2026-04-23 18:09 62.21635 25.08471 37837 ft 381 kts 357°
2026-04-23 18:10 62.26944 25.08337 37847 ft 382 kts 357°
2026-04-23 18:10 62.32252 25.08197 37846 ft 382 kts 357°
2026-04-23 18:11 62.37566 25.08046 37842 ft 382 kts 357°
2026-04-23 18:11 62.42882 25.07892 37842 ft 382 kts 357°
2026-04-23 18:12 62.48196 25.07741 37848 ft 382 kts 357°
2026-04-23 18:12 62.53517 25.07590 37852 ft 383 kts 357°
2026-04-23 18:13 62.58804 25.07437 37815 ft 382 kts 357°
2026-04-23 18:13 62.64161 25.07285 37837 ft 382 kts 357°
2026-04-23 18:14 62.69447 25.07146 37847 ft 382 kts 357°
2026-04-23 18:14 62.74766 25.06996 37885 ft 383 kts 357°
2026-04-23 18:15 62.80096 25.06833 37870 ft 383 kts 357°
2026-04-23 18:15 62.85424 25.06687 37864 ft 383 kts 357°
2026-04-23 18:16 62.90758 25.06526 37858 ft 383 kts 357°
2026-04-23 18:16 62.96092 25.06366 37854 ft 383 kts 357°
2026-04-23 18:17 63.04077 25.06135 37852 ft 383 kts 357°
2026-04-23 18:17 63.09365 25.05987 37879 ft 383 kts 357°
2026-04-23 18:18 63.14700 25.05834 37867 ft 384 kts 357°
2026-04-23 18:18 63.20052 25.05673 37861 ft 384 kts 357°
2026-04-23 18:19 63.25399 25.05508 37851 ft 385 kts 357°
2026-04-23 18:19 63.30749 25.05347 37820 ft 384 kts 357°
2026-04-23 18:20 63.36087 25.05185 37839 ft 383 kts 357°
2026-04-23 18:20 63.41425 25.05012 37844 ft 383 kts 357°
2026-04-23 18:21 63.46744 25.04854 37848 ft 385 kts 357°
2026-04-23 18:21 63.52104 25.04694 37845 ft 385 kts 357°
2026-04-23 18:22 63.57474 25.04544 37844 ft 386 kts 357°
2026-04-23 18:22 63.62846 25.04397 37842 ft 386 kts 357°
2026-04-23 18:23 63.70873 25.04145 37835 ft 386 kts 357°
2026-04-23 18:24 63.78969 25.03887 37844 ft 387 kts 357°
2026-04-23 18:25 63.86154 25.03681 37824 ft 388 kts 357°
2026-04-23 18:25 63.91562 25.03503 37822 ft 388 kts 357°
2026-04-23 18:26 63.96967 25.03331 37757 ft 389 kts 357°
2026-04-23 18:26 64.02324 25.03169 37797 ft 387 kts 357°
2026-04-23 18:27 64.07718 25.02991 37811 ft 387 kts 357°
2026-04-23 18:27 64.13114 25.02815 37851 ft 388 kts 357°
2026-04-23 18:28 64.18512 25.02658 37840 ft 388 kts 357°
2026-04-23 18:28 64.23923 25.02484 37825 ft 389 kts 357°
2026-04-23 18:29 64.29331 25.02307 37826 ft 389 kts 357°
2026-04-23 18:29 64.34755 25.02133 37833 ft 389 kts 357°
2026-04-23 18:30 64.40175 25.01957 37815 ft 390 kts 357°
2026-04-23 18:30 64.45563 25.01791 37839 ft 391 kts 357°
2026-04-23 18:31 64.51000 25.01619 37812 ft 390 kts 356°
2026-04-23 18:31 64.56435 25.01437 37808 ft 391 kts 356°
2026-04-23 18:32 64.61884 25.01254 37812 ft 392 kts 356°
2026-04-23 18:32 64.67334 25.01080 37809 ft 392 kts 357°
2026-04-23 18:33 64.72787 25.00908 37792 ft 391 kts 356°
2026-04-23 18:33 64.78227 25.00726 37816 ft 390 kts 356°
2026-04-23 18:34 64.83612 25.00539 37801 ft 388 kts 356°
2026-04-23 18:34 64.89012 25.00363 37801 ft 388 kts 356°
2026-04-23 18:35 64.94417 25.00184 37797 ft 389 kts 356°
2026-04-23 18:35 64.99829 25.00002 37799 ft 389 kts 356°
2026-04-23 18:36 65.05244 24.99818 37798 ft 389 kts 356°
2026-04-23 18:36 65.10660 24.99630 37794 ft 389 kts 356°
2026-04-23 18:37 65.16091 24.99443 37803 ft 391 kts 356°
2026-04-23 18:37 65.21539 24.99266 37792 ft 392 kts 356°
2026-04-23 18:38 65.26995 24.99076 37788 ft 392 kts 356°
2026-04-23 18:38 65.32453 24.98881 37788 ft 393 kts 356°
2026-04-23 18:39 65.37886 24.98695 37783 ft 393 kts 356°
2026-04-23 18:39 65.43360 24.98512 37783 ft 393 kts 356°
2026-04-23 18:40 65.48836 24.98316 37808 ft 394 kts 356°
2026-04-23 18:40 65.54331 24.98115 37768 ft 395 kts 357°
2026-04-23 18:41 65.59844 24.97923 37751 ft 397 kts 357°
2026-04-23 18:41 65.65344 24.97740 37742 ft 398 kts 357°
2026-04-23 18:42 65.70925 24.97557 37756 ft 399 kts 357°
2026-04-23 18:42 65.76448 24.97344 37763 ft 400 kts 357°
2026-04-23 18:43 65.82011 24.97140 37766 ft 400 kts 357°
2026-04-23 18:43 65.87595 24.96947 36795 ft 405 kts 356°
2026-04-23 18:43 65.90417 24.96842 35868 ft 405 kts 356°
2026-04-23 18:44 65.93211 24.96740 35005 ft 397 kts 355°
2026-04-23 18:44 65.95948 24.96649 33860 ft 388 kts 354°
2026-04-23 18:44 65.98619 24.96562 32798 ft 378 kts 354°
2026-04-23 18:44 66.01186 24.96489 32490 ft 361 kts 354°
2026-04-23 18:45 66.03663 24.96412 32157 ft 351 kts 354°
2026-04-23 18:45 66.06073 24.96324 31693 ft 343 kts 353°
2026-04-23 18:45 66.08434 24.96229 31227 ft 335 kts 353°
2026-04-23 18:45 66.10737 24.96137 30766 ft 327 kts 353°
2026-04-23 18:46 66.12988 24.96053 30326 ft 320 kts 353°
2026-04-23 18:46 66.15186 24.95975 29862 ft 312 kts 353°
2026-04-23 18:46 66.17303 24.95902 29429 ft 303 kts 353°
2026-04-23 18:46 66.19415 24.95825 29073 ft 301 kts 352°
2026-04-23 18:47 66.21591 24.95712 28576 ft 323 kts 352°
2026-04-23 18:47 66.23878 24.95589 28130 ft 332 kts 353°
2026-04-23 18:47 66.26193 24.95491 27682 ft 333 kts 353°
2026-04-23 18:47 66.28506 24.95413 27237 ft 331 kts 353°
2026-04-23 18:48 66.30773 24.95345 26807 ft 330 kts 353°
2026-04-23 18:48 66.33060 24.95280 26366 ft 328 kts 353°
2026-04-23 18:48 66.35331 24.95212 25935 ft 326 kts 353°
2026-04-23 18:48 66.37590 24.95133 25517 ft 324 kts 353°
2026-04-23 18:49 66.39835 24.95052 25101 ft 322 kts 353°
2026-04-23 18:49 66.42070 24.94967 24703 ft 320 kts 353°
2026-04-23 18:49 66.44296 24.94888 24301 ft 318 kts 353°
2026-04-23 18:49 66.46558 24.94790 23897 ft 334 kts 353°
2026-04-23 18:50 66.48108 24.94717 23620 ft 338 kts 353°
2026-04-23 18:50 66.51266 24.94586 23022 ft 339 kts 353°
2026-04-23 18:50 66.53626 24.94503 22585 ft 339 kts 353°
2026-04-23 18:50 66.55990 24.94422 22207 ft 341 kts 354°
2026-04-23 18:51 66.58373 24.94331 21742 ft 343 kts 354°
2026-04-23 18:51 66.60766 24.94235 21310 ft 344 kts 354°
2026-04-23 18:51 66.63132 24.94144 20885 ft 344 kts 354°
2026-04-23 18:51 66.65523 24.94048 20444 ft 344 kts 354°
2026-04-23 18:52 66.67913 24.93949 19997 ft 344 kts 354°
2026-04-23 18:52 66.70304 24.93850 19542 ft 343 kts 354°
2026-04-23 18:52 66.72693 24.93759 19089 ft 343 kts 355°
2026-04-23 18:52 66.75083 24.93678 18643 ft 343 kts 355°
2026-04-23 18:53 66.77473 24.93594 18168 ft 343 kts 355°
2026-04-23 18:53 66.79861 24.93503 17678 ft 343 kts 355°
2026-04-23 18:53 66.82244 24.93416 17232 ft 342 kts 355°
2026-04-23 18:53 66.84626 24.93329 16764 ft 341 kts 355°
2026-04-23 18:54 66.86999 24.93237 16317 ft 340 kts 355°
2026-04-23 18:54 66.89357 24.93140 15852 ft 338 kts 355°
2026-04-23 18:54 66.91702 24.93046 15465 ft 337 kts 355°
2026-04-23 18:54 66.94046 24.92960 14992 ft 336 kts 355°
2026-04-23 18:55 66.96388 24.92874 14539 ft 336 kts 355°
2026-04-23 18:55 66.98724 24.92786 14104 ft 335 kts 355°
2026-04-23 18:55 67.01051 24.92696 13660 ft 334 kts 355°
2026-04-23 18:55 67.03372 24.92607 13188 ft 333 kts 355°
2026-04-23 18:56 67.04906 24.92549 12889 ft 332 kts 355°
2026-04-23 18:56 67.07995 24.92422 12276 ft 331 kts 355°
2026-04-23 18:56 67.10259 24.92333 11819 ft 329 kts 355°
2026-04-23 18:56 67.12544 24.92247 11364 ft 328 kts 355°
2026-04-23 18:57 67.14827 24.92155 10899 ft 327 kts 355°
2026-04-23 18:57 67.17103 24.92052 10432 ft 326 kts 355°
2026-04-23 18:57 67.19363 24.91954 10044 ft 324 kts 355°
2026-04-23 18:57 67.21597 24.91864 9970 ft 314 kts 355°
2026-04-23 18:58 67.23719 24.91792 9845 ft 296 kts 355°
2026-04-23 18:58 67.25729 24.91846 9716 ft 282 kts 360°
2026-04-23 18:58 67.27643 24.92213 9629 ft 269 kts 359°
2026-04-23 18:58 67.29457 24.92561 9487 ft 256 kts 358°
2026-04-23 18:59 67.31197 24.92898 9305 ft 245 kts 358°
2026-04-23 18:59 67.32883 24.93218 8961 ft 242 kts 358°
2026-04-23 18:59 67.34556 24.93529 8575 ft 240 kts 358°
2026-04-23 18:59 67.36218 24.93843 8144 ft 239 kts 359°
2026-04-23 19:00 67.37876 24.94161 7716 ft 238 kts 359°
2026-04-23 19:00 67.39532 24.94479 7182 ft 241 kts 359°
2026-04-23 19:00 67.41209 24.94792 6518 ft 249 kts 360°
2026-04-23 19:00 67.42959 24.95119 5813 ft 256 kts
2026-04-23 19:01 67.44751 24.95463 5167 ft 259 kts
2026-04-23 19:01 67.46517 24.95812 4930 ft 247 kts
2026-04-23 19:01 67.48184 24.96143 4808 ft 234 kts
2026-04-23 19:01 67.49747 24.96454 4699 ft 215 kts
2026-04-23 19:02 67.50700 24.96643 4610 ft 198 kts
2026-04-23 19:02 67.52420 24.96076 4408 ft 182 kts 346°
2026-04-23 19:02 67.53612 24.95331 4298 ft 172 kts 346°
2026-04-23 19:02 67.54748 24.94606 4105 ft 163 kts 346°
2026-04-23 19:03 67.55831 24.93911 3833 ft 158 kts 346°
2026-04-23 19:03 67.56890 24.93231 3588 ft 153 kts 347°
2026-04-23 19:03 67.57875 24.92597 3354 ft 138 kts 347°
2026-04-23 19:03 67.58752 24.92032 3156 ft 127 kts 347°
2026-04-23 19:04 67.59597 24.91488 2954 ft 123 kts 348°
2026-04-23 19:04 67.60425 24.90954 2754 ft 122 kts 348°
2026-04-23 19:04 67.61250 24.90422 2561 ft 121 kts 348°
2026-04-23 19:04 67.62069 24.89894 2362 ft 121 kts 348°
2026-04-23 19:05 67.62880 24.89369 2147 ft 120 kts 347°
2026-04-23 19:05 67.63693 24.88844 1951 ft 120 kts 349°
2026-04-23 19:05 67.64503 24.88321 1764 ft 120 kts 349°
2026-04-23 19:05 67.65310 24.87801 1548 ft 119 kts 347°
2026-04-23 19:06 67.66120 24.87272 1354 ft 121 kts 346°
2026-04-23 19:06 67.66943 24.86741 1171 ft 120 kts 346°
2026-04-23 19:06 67.67749 24.86218 985 ft 121 kts 345°
2026-04-23 19:06 67.68552 24.85691 823 ft 119 kts 346°
2026-04-23 19:07 67.69327 24.85188 663 ft 106 kts 347°
2026-04-23 19:07 67.69969 24.84776 644 ft 84 kts 347°
2026-04-23 19:07 67.70732 24.84288 753 ft 142 kts 347°
2026-04-23 19:07 67.71786 24.83644 1553 ft 157 kts 348°
2026-04-23 19:08 67.72883 24.82932 2362 ft 170 kts 347°
2026-04-23 19:08 67.74081 24.82095 3016 ft 181 kts 347°
2026-04-23 19:08 67.75324 24.81333 3631 ft 184 kts 348°
2026-04-23 19:08 67.76561 24.80635 3839 ft 180 kts 348°
2026-04-23 19:09 67.77794 24.80013 3976 ft 180 kts 356°
2026-04-23 19:09 67.78987 24.80939 3999 ft 188 kts 32°
2026-04-23 19:09 67.79729 24.83891 4012 ft 206 kts 69°
2026-04-23 19:09 67.79652 24.87766 4005 ft 223 kts 105°
2026-04-23 19:10 67.78702 24.91112 4003 ft 236 kts 141°
2026-04-23 19:10 67.77194 24.92754 4014 ft 242 kts 168°
2026-04-23 19:10 67.75532 24.93465 4008 ft 243 kts 173°
2026-04-23 19:10 67.73856 24.94021 4006 ft 242 kts 173°
2026-04-23 19:11 67.72185 24.94552 4006 ft 242 kts 174°
2026-04-23 19:11 67.70509 24.95085 4005 ft 242 kts 174°
2026-04-23 19:11 67.68836 24.95618 4005 ft 242 kts 173°
2026-04-23 19:11 67.67165 24.96270 4002 ft 243 kts 163°
2026-04-23 19:12 67.66107 24.97215 4020 ft 243 kts 156°
2026-04-23 19:12 67.64010 24.99501 4006 ft 244 kts 154°
2026-04-23 19:12 67.62453 25.01259 4010 ft 244 kts 154°
2026-04-23 19:12 67.60894 25.03023 4009 ft 244 kts 154°
2026-04-23 19:13 67.59340 25.04810 4006 ft 244 kts 154°
2026-04-23 19:13 67.57773 25.06674 4017 ft 250 kts 154°
2026-04-23 19:13 67.56189 25.08570 4022 ft 251 kts 154°
2026-04-23 19:13 67.54603 25.10469 4025 ft 251 kts 154°
2026-04-23 19:14 67.53015 25.12371 4030 ft 251 kts 154°
2026-04-23 19:14 67.51429 25.14265 4033 ft 251 kts 154°
2026-04-23 19:14 67.50379 25.15518 4030 ft 251 kts 154°
2026-04-23 19:14 67.48787 25.17418 4055 ft 251 kts 154°
2026-04-23 19:15 67.47201 25.19310 4052 ft 251 kts 154°
2026-04-23 19:15 67.45097 25.21813 4056 ft 251 kts 154°
2026-04-23 19:15 67.43509 25.23700 4057 ft 251 kts 154°
2026-04-23 19:15 67.41922 25.25585 4055 ft 251 kts 154°
2026-04-23 19:16 67.40844 25.26853 4056 ft 251 kts 156°
2026-04-23 19:16 67.39149 25.27762 4051 ft 250 kts 184°
2026-04-23 19:16 67.37493 25.26707 4054 ft 243 kts 213°
2026-04-23 19:17 67.35498 25.20035 4056 ft 251 kts 266°
2026-04-23 19:17 67.35507 25.15667 4055 ft 242 kts 290°
2026-04-23 19:17 67.36200 25.11817 4054 ft 233 kts 313°
2026-04-23 19:17 67.37404 25.09140 4054 ft 227 kts 334°
2026-04-23 19:18 67.38875 25.07703 4052 ft 226 kts 342°
2026-04-23 19:18 67.40374 25.06419 4052 ft 227 kts 342°
2026-04-23 19:18 67.41874 25.05120 4054 ft 227 kts 342°
2026-04-23 19:18 67.43366 25.03820 4066 ft 221 kts 342°
2026-04-23 19:19 67.46043 25.01471 4065 ft 189 kts 342°
2026-04-23 19:19 67.47281 25.00384 4065 ft 187 kts 342°
2026-04-23 19:20 67.49715 24.98022 4065 ft 186 kts 343°
2026-04-23 19:20 67.50955 24.97091 4028 ft 181 kts 346°
2026-04-23 19:20 67.52128 24.96303 4020 ft 167 kts 346°
2026-04-23 19:20 67.53211 24.95599 4045 ft 157 kts 347°
2026-04-23 19:21 67.54267 24.94918 4013 ft 155 kts 347°
2026-04-23 19:21 67.56367 24.93568 3696 ft 155 kts 347°
2026-04-23 19:21 67.57416 24.92893 3458 ft 155 kts 347°
2026-04-23 19:22 67.58469 24.92215 3210 ft 153 kts 347°
2026-04-23 19:22 67.59449 24.91583 2994 ft 135 kts 348°
2026-04-23 19:22 67.61148 24.90487 2577 ft 122 kts 348°
2026-04-23 19:23 67.61964 24.89961 2389 ft 120 kts 348°
2026-04-23 19:23 67.62772 24.89439 2168 ft 119 kts 347°
2026-04-23 19:23 67.63582 24.88917 1965 ft 120 kts 348°
2026-04-23 19:24 67.65186 24.87872 1580 ft 118 kts 347°
2026-04-23 19:24 67.65986 24.87360 1359 ft 119 kts 346°
2026-04-23 19:24 67.67593 24.86327 1020 ft 121 kts 346°
2026-04-23 19:25 67.69160 24.85299 672 ft 110 kts 347°
2026-04-23 19:25 67.70197 24.84625 640 ft 38 kts 346°
2026-04-23 19:26 67.70584 24.84376 630 ft 22 kts 346°
2026-04-23 19:26 67.70699 24.84405 640 ft 16 kts 37°
2026-04-23 19:27 67.70643 24.84782 640 ft 20 kts 165°
2026-04-23 19:27 67.70225 24.85055 641 ft 19 kts 167°
2026-04-23 19:28 67.69883 24.85275 639 ft 26 kts 167°
2026-04-23 19:28 67.69590 24.85479 639 ft 18 kts 166°
2026-04-23 19:29 67.69534 24.85518 640 ft 0 kts 161°
2026-04-23 19:29 67.69537 24.85643 641 ft 4 kts 75°
2026-04-23 19:30 67.69544 24.85708 640 ft 0 kts 76°